This is the latest recevied weather packets stored in our database for station/object WD4DAN-13. If no packets are shown the sender has not sent any weather packets the latest 10 day(s).
| Time | Temp. | Humidity | Pressure | Rain* | Wind** | Luminosity | Snow |
|---|---|---|---|---|---|---|---|
| 1777656095 | 24.44° C | 61% | - | 0 mm | - | - | - |
| 1777655791 | 23.89° C | 62% | - | 0 mm | - | - | - |
| 1777655488 | 23.89° C | 61% | - | 0 mm | - | - | - |
| 1777655185 | 23.89° C | 65% | - | 0 mm | - | - | - |
| 1777654881 | 23.89° C | 61% | - | 0 mm | - | - | - |
| 1777654579 | 23.89° C | 64% | - | 0 mm | - | - | - |
| 1777654276 | 23.89° C | 65% | - | 0 mm | - | - | - |
| 1777653975 | 22.78° C | 63% | - | 0 mm | - | - | - |
| 1777653671 | 23.89° C | 65% | - | 0 mm | - | - | - |
| 1777653367 | 22.78° C | 66% | - | 0 mm | - | - | - |
| 1777653065 | 22.78° C | 66% | - | 0 mm | - | - | - |
| 1777652760 | 22.22° C | 67% | - | 0 mm | - | - | - |
| 1777652458 | 22.78° C | 68% | - | 0 mm | - | - | - |
| 1777652155 | 22.78° C | 66% | - | 0 mm | - | - | - |
| 1777651851 | 22.78° C | 67% | - | 0 mm | - | - | - |
| 1777651548 | 22.78° C | 67% | - | 0 mm | - | - | - |
| 1777651245 | 22.78° C | 67% | - | 0 mm | - | - | - |
| 1777650941 | 22.78° C | 66% | - | 0 mm | - | - | - |
| 1777650639 | 22.78° C | 68% | - | 0 mm | - | - | - |
| 1777650336 | 22.78° C | 68% | - | 0 mm | - | - | - |
| 1777650033 | 22.22° C | 68% | - | 0 mm | - | - | - |
| 1777649731 | 22.78° C | 68% | - | 0 mm | - | - | - |
| 1777649427 | 22.78° C | 66% | - | 0 mm | - | - | - |
| 1777649124 | 22.22° C | 67% | - | 0 mm | - | - | - |
| 1777648821 | 22.22° C | 66% | - | 0 mm | - | - | - |
* Rain latest hour (hover to see other rain measurements)
** Current wind speed in m/s (hover to see current wind gust speed)